Location: Doverdale
(52.2833°N, 2.2000°W)
Time: 14:40:45
(UTC+00:00)

USA 307 - Pass Details

Date: 29 October 2020
Orbit: 569 x 579 km, 54.0° (Epoch: 23 November)

Event Time Altitude Azimuth Distance (km) Brightness Sun altitude
Rises 18:37:43 0° 290° (WNW) 2,791 7.8 -17.8°
Reaches altitude 10° 18:40:04 10° 283° (WNW) 1,888 6.7 -18.1°
Maximum altitude 18:44:05 40° 214° (SW) 852 4.0 -18.7°
Enters shadow 18:46:30 21° 156° (SSE) 1,320 4.5 -19.1°
